CZ-6A DEB, 60850

Orbit data source: Space-Track

CZ-6A DEB, 60850 is space debris in LEO originally from a launch on Tue, 06 Aug 2024 UTC launched from the Taiyaun Space Center, China (TSC). Debris objects in space refer to the collection of defunct objects orbiting the Earth. Examples of debris include non-operational satellites, rocket bodies, and fragments generated from explosions, collisions, or faulty payload assembly.

Loading next visibility...
Identifier
60850, 2024-140JD
Orbit
LEO
Country
Flag of CNCN / PRC
Related business
Manufacturer
SAST
Mission
Spacecraft
Bus & Motor
Unknown
Mass
Unknown
Launch date (UTC)
2024-08-06 (2 years ago)
Launch vehicle
Unknown
Launch site
Taiyaun Space Center, China (TSC)
Object type
Payload
Rocket body
Debris
Shape & HBR
Unknown shape, 0.1 m
Radar Cross Section
Medium (>0.1 m² and <1 m²)

Expand to show TLE details & history
Last TLE update: 18 hours ago

TLE from 18 hours ago
0 CZ-6A DEB
1 60850U 24140JD  26171.21856746  .00000344  00000-0  14259-3 0  9991
2 60850  88.8625 262.6301 0026740 140.6405 219.6737 14.24034650 95993
Epoch: 2026-06-20T05:14Z
TLE epoch observation values (Epoch: 2026-06-20T05:14:44.228Z)
Latitude
-0.00005°
Longitude
-84.49053°
Altitude
829.621 km
Speed
7.43 km/s
True Right ascension
17h 30m 31s
True Declination
0° 00' 00"
Sunlit
Object was in full shadow at epoch
Visualization orbit readout
Latitude
Unknown
Longitude
Unknown
Altitude
Unknown
Speed
Unknown
Apparent Right ascension
Unknown
Apparent Declination
Unknown
Sunlit
N/A
Visualization observer readout
Local Sidereal Time
10:20:33
Azimuth
Unknown
Elevation
Unknown
Doppler factor
Unknown
Orbital elements
Apogee altitude
827.904 km
Perigee altitude
789.469 km
Semi-major axis
7,186.823 km
Eccentricity
0.00267
Inclination
88.8625°
RAAN
262.6301°
Arg. of periapsis
140.6405°
True anomaly
219.47858°
Mean anomaly
219.6737°
Eccentric anomaly
219.57609°
Mean motion
3.56236 °/min
Orbital period
101.06 mins
BSTAR
0.00014259
Loading maneuver chart data...
Computing Atmospheric mass density...
Loading historical data...
Loading historical data...
Loading historical data...
Loading historical data...
Loading historical data...
Loading historical data...
Loading historical data...

Documentation

Showing up to 5 results
|